SCP
3 4 5 5 4 3 2 3 3 3 3 3 2 3 3 3 3 3 3 3 3 2 2 2 2 1 1 1 1 1 1 1 1 1 1 1 1 1 1 1 1 1 1
4 5 6 6 4 3 3 3 3 4 3 3 3 3 3 3 3 3 3 3 3 3 2 2 2 2 2 2 1 1 1 1 2 2 2 1 1 1 1 1 1 1 1
7 8 8 6 4 3 3 3 4 4 4 3 3 3 3 3 3 3 3 3 3 3 3 3 3 2 2 2 2 2 2 2 2 2 2 2 2 1 1 1 1 1 1
9 9 8 5 3 2 3 3 4 5 4 3 3 3 3 3 3 3 3 3 3 3 3 3 3 3 3 2 2 2 2 2 2 3 3 2 2 2 2 2 2 2 1
10 8 5 3 3 3 3 4 5 5 4 3 2 3 3 2 3 3 3 3 3 3 3 3 3 2 2 2 2 2 2 2 2 3 3 3 2 2 2 2 2 2 2
8 6 3 3 3 4 5 5 6 5 4 3 3 3 3 2 2 2 2 2 3 2 2 2 2 2 1 1 1 1 1 1 2 2 2 2 2 2 2 2 2 2 2
6 5 4 3 3 5 6 7 6 5 4 3 3 3 2 2 1 1 1 2 2 2 2 2 2 2 2 1 1 1 1 1 1 1 1 1 1 1 2 2 3 3 2
8 8 7 6 6 6 7 7 6 5 4 3 3 2 2 2 1 1 1 2 3 3 3 3 3 3 3 2 2 1 1 0 0 0 1 1 1 1 2 2 3 3 3
11 13 14 13 10 8 7 7 6 4 3 3 2 2 2 2 1 1 1 2 4 5 5 5 4 4 3 3 3 3 2 1 1 0 0 1 1 1 1 2 3 4 4
11 14 17 15 11 8 7 5 4 4 3 3 2 2 2 2 2 1 1 3 6 8 8 7 5 4 3 2 3 4 3 2 1 1 1 1 1 1 1 2 3 4 4
9 11 12 11 8 6 5 4 4 4 4 3 3 3 3 3 2 1 1 4 8 10 10 7 4 3 2 1 2 3 3 3 2 2 1 2 2 2 2 2 3 4 4
7 7 7 6 5 5 4 5 5 5 4 3 3 3 3 3 3 1 1 3 6 8 7 4 2 1 1 0 1 2 2 2 3 3 2 2 3 3 3 3 3 3 3
6 6 6 6 5 5 5 5 5 5 4 4 3 4 4 4 3 2 1 1 3 4 3 2 1 0 0 0 0 0 1 1 3 3 3 3 3 4 4 3 2 2 1
6 6 6 5 5 5 5 6 5 5 5 4 4 4 5 5 4 3 2 1 1 2 2 1 1 0 0 1 1 0 1 1 2 3 3 3 3 4 4 3 1 1 0
6 6 5 5 5 5 6 6 5 5 4 4 4 4 5 4 4 3 2 2 1 1 2 2 2 1 1 1 1 1 1 2 3 3 3 4 4 5 4 2 1 0 0
5 5 5 5 5 5 6 6 5 4 3 3 3 3 3 3 2 2 1 1 1 1 2 3 3 2 1 2 1 1 2 3 4 4 4 5 5 5 3 1 0 0 0
5 5 6 5 5 5 6 6 5 3 2 2 1 1 1 1 1 0 0 0 0 1 2 4 3 2 2 2 1 2 2 4 5 5 6 6 6 6 3 1 0 0 0
4 5 5 5 5 5 6 6 6 4 3 2 1 1 0 0 0 0 0 1 1 2 3 4 4 3 2 2 2 3 3 4 5 6 7 7 7 6 4 1 0 0 0
4 5 5 5 6 6 6 5 6 5 4 3 2 1 0 0 0 0 1 2 3 4 4 5 5 4 4 4 4 4 5 6 7 8 9 9 8 7 4 2 1 0 0
4 4 5 6 6 5 4 4 4 5 5 4 3 2 1 1 1 2 2 3 4 5 6 6 6 6 5 5 5 6 6 7 8 9 9 10 9 7 4 2 1 0 0
5 4 4 5 5 4 3 2 3 4 4 3 2 2 1 1 2 2 3 4 5 6 7 8 8 8 7 7 7 7 7 8 8 9 10 10 9 7 4 3 1 1 0
5 4 4 4 4 3 2 2 2 3 3 2 2 2 1 1 1 2 3 4 5 6 8 9 9 10 10 9 8 8 8 8 8 9 10 11 9 6 4 2 1 1 0
3 3 3 3 3 2 2 2 2 2 2 2 2 2 1 1 1 2 3 4 5 6 8 9 10 11 12 11 9 9 8 8 8 9 11 11 8 5 2 1 1 0 0
2 2 2 2 2 2 2 2 2 2 2 2 2 2 1 1 1 1 2 3 4 6 7 9 9 10 11 10 9 9 10 9 9 10 11 9 6 3 1 1 0 0 0
1 2 2 2 2 2 2 2 1 1 1 2 2 2 1 1 1 1 1 2 3 5 6 8 8 8 9 9 8 9 9 8 8 10 10 7 4 2 1 0 0 0 0
1 2 2 2 2 2 1 1 1 1 1 2 2 2 1 1 1 1 1 1 2 3 5 7 8 8 8 7 7 8 7 4 5 9 10 6 3 1 0 0 0 0 0
Wind_Speed
5 4 3 3 3 3 2 2 1 1 1 1 0 1 1 1 1 1 1 1 1 1 1 1 2 2 2 2 2 2 2 2 2 1 1 1 1 1 2 1 1 1 4
5 5 4 3 3 3 2 2 2 1 1 1 1 1 1 1 1 1 1 1 1 1 1 1 2 1 1 2 1 1 1 1 2 1 0 0 0 1 1 1 1 2 3
5 5 4 4 4 3 3 2 2 2 1 1 1 1 1 0 1 1 1 0 1 1 1 1 1 1 1 1 1 1 0 1 1 1 1 0 0 1 1 1 2 1 2
6 5 5 4 3 3 3 3 2 2 2 1 1 1 1 1 0 0 1 1 1 1 1 1 2 1 1 1 0 0 0 0 1 1 1 1 1 1 1 1 1 1 1
6 6 5 4 4 3 3 3 2 2 2 2 1 1 1 1 0 1 1 1 1 1 1 1 3 3 4 3 2 1 0 1 1 1 1 1 1 1 1 1 1 1 2
6 5 4 4 4 4 3 3 2 2 1 2 2 1 1 1 4 3 2 1 1 1 1 1 2 2 3 3 3 3 3 1 1 1 1 1 1 1 0 1 1 1 1
6 5 5 5 4 4 4 4 3 3 2 2 2 2 1 2 2 1 3 2 1 1 1 1 0 2 1 2 3 3 2 2 1 2 1 1 1 1 1 1 1 1 0
6 6 6 6 5 5 5 4 4 3 3 2 2 2 2 2 2 1 3 3 2 2 1 1 1 1 2 0 1 2 2 2 0 1 0 1 0 1 2 2 1 2 2
6 6 6 6 5 5 5 4 4 3 3 3 3 3 3 3 2 2 4 3 2 2 2 2 1 2 2 2 1 2 2 2 3 3 2 2 2 2 2 2 2 2 1
6 6 6 6 5 5 5 4 3 3 4 3 3 3 3 3 4 3 5 3 3 3 3 3 3 2 2 1 1 1 1 1 1 3 4 4 3 3 2 2 2 2 1
5 5 5 5 5 5 5 5 5 5 4 4 4 4 4 3 5 5 4 4 2 3 3 3 3 4 3 2 3 1 1 2 2 3 3 3 3 3 3 2 2 2 2
4 5 5 5 5 5 5 5 5 5 6 5 5 4 4 4 4 5 5 4 4 3 3 2 3 5 4 3 2 1 2 5 3 3 2 2 2 2 1 1 0 1 2
4 5 5 5 5 5 6 6 6 5 5 5 5 5 4 4 5 7 8 6 5 4 2 2 3 5 6 5 5 4 5 4 3 3 2 2 1 1 1 2 2 2 2
4 4 4 5 5 5 5 5 5 5 5 5 4 4 4 4 4 5 6 7 7 6 5 5 7 7 6 4 5 6 5 3 3 3 2 2 2 2 3 2 2 2 2
5 5 5 5 4 4 4 3 4 3 3 4 4 4 4 5 4 3 4 4 4 3 3 4 5 5 6 5 4 4 4 4 4 3 3 3 3 3 2 2 2 3 3
5 5 5 4 4 4 4 3 0 2 1 3 4 5 3 2 4 5 5 4 3 4 5 6 5 5 5 5 4 4 4 4 4 3 3 3 3 3 3 2 3 3 3
5 5 4 4 4 4 4 4 3 3 3 3 4 4 4 3 5 6 7 6 6 7 7 7 6 5 5 5 5 5 5 4 4 4 4 3 3 3 3 3 3 3 3
5 4 4 4 4 4 4 4 4 4 4 3 4 5 4 5 5 6 7 6 6 8 8 7 6 6 5 5 5 5 4 4 5 4 4 4 4 4 4 4 4 4 4
5 4 4 4 4 4 4 4 4 4 3 3 3 3 4 5 5 6 8 7 7 7 7 7 6 5 5 4 4 4 4 4 4 4 4 4 4 5 4 4 4 4 5
4 3 3 4 4 4 4 4 4 3 4 3 3 2 3 5 4 5 6 6 6 6 5 5 5 4 4 4 4 5 5 5 5 5 4 4 4 4 5 5 4 4 4
3 3 5 4 4 4 4 4 4 3 3 3 3 2 3 5 5 5 5 5 5 5 5 4 4 4 4 4 4 5 6 5 5 5 5 4 4 4 4 4 5 4 4
2 3 4 4 3 3 4 4 4 4 4 5 4 3 5 5 4 4 4 4 4 4 4 4 4 4 3 3 4 4 5 4 4 4 4 4 4 5 5 5 4 4 4
3 3 3 3 3 3 4 4 4 4 4 4 4 3 4 4 4 4 4 4 4 4 4 4 4 4 3 4 4 4 4 3 3 4 4 4 4 4 5 5 6 6 5
3 3 3 3 3 4 4 4 4 5 5 5 5 4 4 4 4 4 4 3 3 4 4 4 4 4 5 4 4 4 3 2 3 4 5 5 5 5 5 5 5 5 5
2 3 3 3 3 3 4 4 4 4 4 4 4 4 4 4 4 4 3 4 4 4 4 4 4 4 5 6 4 3 2 1 2 3 4 5 5 5 5 6 5 5 5
1 2 2 2 3 3 3 4 4 4 4 4 4 4 4 4 4 4 4 4 4 4 4 4 4 5 6 5 5 3 3 3 3 3 5 5 6 5 5 5 6 6 6
Wind_Direction
172 172 178 180 184 192 194 193 199 203 195 211 212 202 212 229 216 232 263 242 246 258 276 270 274 293 280 267 255 253 258 263 255 284 24 69 57 28 60 66 103 142 113
168 168 174 174 172 182 177 182 178 171 189 186 199 202 226 237 237 230 258 280 290 304 309 311 305 305 291 287 270 253 248 243 234 226 254 133 86 76 70 78 80 86 99
163 167 168 176 177 180 182 175 163 164 171 197 181 180 201 219 216 215 244 287 341 349 338 325 336 342 342 343 308 290 235 180 196 195 206 103 73 93 106 104 96 95 122
168 172 172 177 176 177 179 173 167 163 157 160 169 179 178 198 190 197 191 168 136 78 45 26 23 19 13 343 287 291 290 217 165 190 183 164 137 113 149 146 144 137 115
175 177 174 169 169 177 176 167 163 165 155 145 157 167 189 193 3 301 206 166 163 140 108 74 65 55 39 13 357 9 245 227 195 180 186 177 143 147 183 179 132 135 126
178 176 169 170 170 173 172 168 166 165 170 157 167 168 183 61 51 16 313 177 182 161 131 116 132 120 98 92 61 42 22 300 268 253 218 202 177 176 196 198 164 164 138
176 175 172 173 175 179 179 175 178 183 179 178 187 182 170 97 81 26 321 265 188 159 151 174 140 93 160 115 136 157 115 62 346 288 272 237 211 197 239 221 195 242 157
178 179 179 181 181 179 181 183 188 188 187 198 198 185 181 134 136 200 265 223 168 160 164 162 143 112 66 10 140 124 116 97 23 268 309 266 289 243 239 236 216 202 184
184 184 184 186 183 183 187 191 192 189 191 201 195 194 190 157 161 207 249 200 171 174 176 158 160 135 71 326 197 153 155 153 135 101 65 80 56 15 306 232 201 216 200
189 186 184 185 185 188 189 193 191 198 199 204 192 203 203 183 160 196 245 221 184 186 171 161 123 111 115 294 221 182 179 172 161 155 160 172 171 163 225 257 258 252 234
189 186 185 182 185 194 194 198 195 198 201 205 199 205 207 199 169 182 231 249 216 212 195 182 138 137 158 226 257 223 204 259 218 201 186 178 173 174 190 208 274 288 278
194 192 195 192 195 189 193 202 206 203 200 201 203 209 200 192 188 179 197 234 272 235 232 205 141 157 177 210 231 177 237 254 228 213 206 201 198 191 172 171 247 300 316
202 204 201 194 198 197 199 205 202 202 211 208 208 211 204 194 177 179 192 209 229 242 230 107 155 183 199 202 198 207 223 233 230 220 213 212 210 186 186 190 187 210 218
203 208 201 200 201 201 210 213 215 205 213 216 219 222 211 205 205 193 196 197 200 210 207 176 189 207 225 223 195 204 219 232 248 238 225 212 207 198 210 215 220 214 217
206 214 211 210 201 203 216 232 234 230 244 244 238 237 235 224 207 196 221 215 218 213 212 212 211 205 210 213 210 210 219 214 219 226 222 218 218 211 213 218 234 241 241
212 213 215 211 198 206 203 207 284 266 194 235 268 277 259 234 175 187 208 218 205 193 218 223 223 224 224 220 216 210 209 216 222 223 223 229 231 224 220 219 221 236 241
224 217 219 217 209 213 213 212 210 210 204 228 244 256 261 229 194 196 202 203 200 194 219 227 227 228 230 228 223 221 213 207 215 221 223 228 234 233 231 227 228 234 239
229 215 218 215 219 219 219 220 219 218 213 209 207 215 223 223 214 204 193 192 202 207 226 231 231 230 229 228 227 223 217 209 208 215 220 226 232 234 231 228 226 237 243
226 219 218 223 220 217 220 227 228 222 226 225 210 183 196 204 206 204 195 219 221 218 224 228 231 230 227 222 222 225 222 220 220 225 223 225 229 234 235 232 223 216 241
218 203 221 231 223 215 222 230 232 228 229 226 227 218 179 194 204 195 207 228 233 230 227 228 228 228 221 217 214 217 217 213 211 220 225 227 230 233 232 232 234 230 230
211 191 200 223 229 226 231 237 234 233 237 239 239 222 221 230 228 219 214 220 230 233 229 226 221 219 218 214 214 216 220 218 216 223 225 224 227 230 236 235 233 237 239
218 218 216 216 222 228 233 235 235 233 234 238 239 206 198 237 242 236 233 230 232 237 234 227 220 216 217 215 215 218 223 224 225 230 232 229 223 225 230 231 233 236 238
224 217 212 212 218 213 228 233 233 237 240 240 242 230 213 236 245 242 242 242 236 234 232 227 228 221 213 212 216 220 229 230 225 225 233 235 234 232 237 235 232 234 236
230 230 227 223 223 228 232 234 237 241 241 243 246 243 233 232 244 249 254 255 247 239 231 225 226 223 218 222 224 222 222 234 244 234 229 238 240 238 236 234 238 242 240
232 233 234 234 235 238 242 244 247 251 254 252 251 248 242 236 236 236 240 242 244 243 238 232 227 221 219 219 223 217 135 139 253 272 241 240 242 243 244 241 241 244 244
232 240 248 248 249 250 248 248 249 250 253 255 254 251 249 242 236 232 228 231 234 231 231 229 228 225 219 215 208 191 158 165 193 240 250 242 241 239 240 242 243 241 238